Home > Weather > Bergheim > Past weeks

Flag for Germany Weather for the Past 2 Weeks in Bergheim, North Rhine-Westphalia, Germany

Now
39 °F

Light rain. Partly sunny.


Feels Like: 31 °F
Forecast: 38 / 44 °F
Wind: 14 mph from Southwest

Location: Noervenich

Current Time: Feb 10, 2016 at 10:05:48 AM

Latest Report: Feb 10, 2016 at 9:20 AM


Visibility: N/A

Pressure: 29.30 "Hg

Humidity: 75%

Dew point: 32 °F

Location of BergheimLocation

Historic Weather in Bergheim — Graph

°F

Bergheim Temperature Yesterday

Maximum temperature yesterday: 54 °F (at 3:20 PM)
Minimum temperature yesterday: 37 °F (at 6:20 PM)
Average temperature yesterday: 44 °F

High & Low Weather Summary for the Past Weeks

 TemperatureHumidityPressure
High55 °F (Jan 26, 1:20 PM)100% (Feb 2, 9:20 AM)30.33 "Hg (Feb 2, 9:20 AM)
Low34 °F (Jan 29, 1:20 AM)50% (Feb 7, 4:20 PM)28.85 "Hg (Feb 9, 3:20 PM)
Average46 °F77%29.91 "Hg
* Reported Jan 26 8:20 AM — Feb 10 8:20 AM, Bergheim, Weather by CustomWeather, © 2016

Note: Actual official high and low records may vary slightly from our data, if they occured in-between our weather recording intervals... More about our weather records

Advertising

Bergheim Weather History for the Previous 24 Hours

 ConditionsComfort  
Time TempWeatherWind HumidityBarometerVisibility
8:20 AM
Wed, Feb 10
39 °FBroken clouds.13 mph75%29.30 "HgN/A
7:20 AM39 °FPassing clouds.9 mph75%29.27 "HgN/A
6:20 AM39 °FLight rain. Passing clouds.9 mph75%29.27 "HgN/A
5:20 AM39 °FSprinkles. Passing clouds.13 mph75%29.27 "HgN/A
4:20 AM39 °FPassing clouds.9 mph75%29.27 "HgN/A
3:20 AM39 °FPassing clouds.9 mph75%29.27 "HgN/A
2:20 AM39 °FPassing clouds.7 mph75%29.27 "HgN/A
1:20 AM39 °FPassing clouds.8 mph75%29.27 "HgN/A
12:20 AM39 °FPassing clouds.7 mph75%29.27 "HgN/A
11:20 PM
Tue, Feb 9
39 °FPassing clouds.7 mph81%29.24 "HgN/A
10:20 PM39 °FPassing clouds.9 mph87%29.21 "HgN/A
9:20 PM39 °FLight rain. Passing clouds.15 mph87%29.18 "HgN/A
8:20 PM39 °FLight rain. Passing clouds.18 mph87%29.12 "HgN/A
7:20 PM37 °FLight rain. Passing clouds.20 mph87%29.06 "HgN/A
6:20 PM37 °FLight rain. Partly cloudy.24 mph87%29.00 "HgN/A
5:20 PM46 °FRain showers. Broken clouds.13 mph76%28.88 "Hg3 mi
4:20 PM48 °FBroken clouds.10 mph71%28.88 "HgN/A
3:20 PM54 °FSprinkles. Broken clouds.17 mph67%28.85 "Hg5 mi
2:20 PM48 °FBroken clouds.6 mph82%28.91 "HgN/A
1:20 PM45 °FLight rain. Partly sunny.8 mph87%29.00 "HgN/A
12:20 PM43 °FPartly sunny.7 mph87%29.09 "HgN/A
11:20 AM43 °FRain. Overcast.7 mph87%29.21 "Hg6 mi
10:20 AM45 °FLight rain. Partly sunny.8 mph71%29.27 "HgN/A
Weather by CustomWeather, © 2016

See weather overviewHow to use our weather pages